This demonstration page uses our WeatherBlox Daily Observations layout. Learn more.

Left ArrowRight Arrow

39.08367, -84.50855

Hourly Observations for March 18, 2020

Temp ( °F °C ) Dew Point ( °F °C ) Humidity (%) Winds ( mph kmh ) Pressure ( in mb ) Visibility ( mi km ) Precip ( " mm )
12:53 am 00:53 Clear 33 0.6 32 undefined 96 96 N N/A 30.35 1028 10 16 N/A
1:53 am 01:53 Clear 34 1.1 33 0.6 97 97 N N/A 30.35 1028 10 16 N/A
2:53 am 02:53 Clear 34 1.1 32 undefined 92 92 N N/A 30.36 1028 7 11 N/A
3:11 am 03:11 Clear with Mist and Fog 32 undefined 31 -0.6 96 96 NE 3 6 30.38 1029 2 3 N/A
3:20 am 03:20 Clear with Mist and Fog 33 0.6 32 undefined 96 96 NNE 3 6 30.38 1029 6 10 N/A
3:53 am 03:53 Clear with Mist and Fog 33 0.6 32 undefined 96 96 NE 3 6 30.33 1027 5 8 N/A
3:58 am 03:58 Clear with Mist and Fog 32 undefined 32 undefined 100 100 NE 3 6 30.36 1028 2 2 N/A
4:08 am 04:08 Clear with Mist and Fog 32 undefined 31 -0.6 96 96 ENE 3 6 30.35 1028 3 5 N/A
4:53 am 04:53 Clear with Mist and Fog 33 0.6 32 undefined 96 96 N N/A 30.31 1026 6 10 N/A
5:53 am 05:53 Clear with Mist and Fog 32 undefined 31 -0.6 96 96 NE 3 6 30.29 1026 2 3 N/A
6:01 am 06:01 Clear with Mist and Fog 31 -0.6 30 -1.1 96 96 NE 5 7 30.31 1026 3 5 N/A
6:53 am 06:53 Mostly Clear 35 1.7 33 0.6 93 93 NE 7 11 30.29 1026 10 16 N/A
7:08 am 07:08 Mostly Cloudy 34 1.1 33 0.6 97 97 NNE 3 6 30.32 1027 10 16 N/A
7:53 am 07:53 Cloudy 38 3.3 36 2.2 93 93 NNE 7 11 30.27 1025 10 16 N/A
8:53 am 08:53 Cloudy with Light Rain 39 3.9 37 2.8 93 93 undefined N/A 30.29 1026 6 10 0.00 0.00
9:53 am 09:53 Cloudy 43 6.1 40 4.4 89 89 N 5 7 30.25 1024 9 14 0.00 0.00
10:53 am 10:53 Cloudy 45 7.2 42 5.6 90 90 E 3 6 30.24 1024 10 16 N/A
12:53 pm 12:53 Cloudy 50 10 45 7.2 83 83 N N/A 30.18 1022 10 16 0.01 0.25
1:53 pm 13:53 Cloudy with Light Rain 51 10.6 48 8.9 89 89 N N/A 30.14 1021 10 16 0.02 0.51
2:05 pm 14:05 Cloudy with Heavy Rain 51 10.6 48 8.9 89 89 N N/A 30.14 1021 2 3 0.04 1.02
2:09 pm 14:09 Cloudy with Strong Thunderstorms 51 10.6 48 8.9 89 89 N N/A 30.14 1021 1 2 0.05 1.27
2:21 pm 14:21 Cloudy with Thunderstorms 50 10 49 9.4 96 96 W 5 7 30.14 1021 2 3 0.20 5.08
2:37 pm 14:37 Cloudy with Rain 50 10 50 10 100 100 N N/A 30.12 1020 3 4 0.28 7.11
2:53 pm 14:53 Cloudy with Light Rain 51 10.6 50 10 96 96 NNE 3 6 30.10 1019 5 8 0.29 7.37
3:24 pm 15:24 Cloudy with Light Rain 52 11.1 51 10.6 97 97 NNE 3 6 30.09 1019 4 6 0.02 0.51
3:39 pm 15:39 Cloudy with Light Rain 52 11.1 51 10.6 97 97 NNW 5 7 30.09 1019 3 4 0.04 1.02
3:50 pm 15:50 Cloudy with Rain 52 11 52 11 100 100 N N/A 30.08 1018 2 3 0.08 2.03
3:53 pm 15:53 Cloudy with Rain 51 10.6 51 10.6 100 100 N N/A 30.07 1018 2 3 0.09 2.29
4:53 pm 16:53 Cloudy with Light Rain 52 11.1 51 10.6 97 97 N 3 6 30.04 1017 3 4 0.13 3.30
5:53 pm 17:53 Cloudy with Rain 54 12.2 53 11.7 97 97 N N/A 29.99 1016 3 4 0.07 1.78
6:00 pm 18:00 Cloudy with Rain 53 11.7 53 11.7 100 100 W 6 9 29.99 1016 1 2 0.03 0.76
6:08 pm 18:08 Cloudy with Rain 53 11.7 53 11.7 100 100 W 9 15 30.00 1016 1 2 0.05 1.27
6:25 pm 18:25 Cloudy with Heavy Rain 56 13.3 56 13.3 100 100 SSE 6 9 30.00 1016 1 1 0.24 6.10
6:31 pm 18:31 Cloudy with Rain 55 12.8 55 12.8 100 100 NW 3 6 29.99 1016 1 2 0.26 6.60
6:41 pm 18:41 Cloudy with Light Rain 57 13.9 56 13.3 96 96 VRB 5 7 29.99 1016 2 2 0.27 6.86
6:53 pm 18:53 Cloudy with Light Rain 59 15 57 13.9 93 93 SW 5 7 30.00 1016 4 6 0.30 7.62
7:53 pm 19:53 Cloudy with Light Rain 59 15 58 14.4 96 96 SSW 9 15 30.01 1016 9 14 0.01 0.25
8:21 pm 20:21 Cloudy with Light Rain 61 16.1 59 15 93 93 SSW 13 20 30.01 1016 10 16 0.00 0.00
8:37 pm 20:37 Cloudy with Light Rain 61 16.1 60 15.6 97 97 SSW 12 19 30.02 1016 10 16 0.01 0.25
8:53 pm 20:53 Cloudy with Light Rain 61 16.1 60 15.6 97 97 SSW 10 17 30.01 1016 9 14 0.01 0.25
9:29 pm 21:29 Cloudy with Light Rain 62 16.7 60 15.6 93 93 SSW 10 17 30.01 1016 10 16 0.03 0.76
9:50 pm 21:50 Cloudy 63 17 61 16 94 94 SSW 12 19 30.01 1016 10 16 0.03 0.76
9:53 pm 21:53 Cloudy 62 16.7 60 15.6 93 93 SSW 12 19 30.01 1016 10 16 0.03 0.76
10:37 pm 22:37 Cloudy 63 17.2 61 16.1 93 93 SSW 9 15 30.01 1016 10 16 N/A
10:53 pm 22:53 Cloudy 62 16.7 60 15.6 93 93 SSW 10 17 30.03 1017 10 16 N/A
11:08 pm 23:08 Cloudy with Heavy Rain 62 16.7 61 16.1 96 96 W 9 15 30.03 1017 4 6 0.02 0.51
11:16 pm 23:16 Cloudy with Light Rain 62 16.7 60 15.6 93 93 W 13 20 30.03 1017 6 10 0.02 0.51
11:27 pm 23:27 Cloudy with Light Rain 62 16.7 59 15 90 90 W 12 19 30.04 1017 9 14 0.02 0.51
11:53 pm 23:53 Cloudy 61 16.1 59 15 93 93 WSW 8 13 30.06 1018 10 16 0.02 0.51

Powered by AerisWeather